RCH711 OBBI-OKAS

Flight info

Callsign RCH711
Flight time 0h 50m
Altitude 32000
Route BHR345/30R BHR A453 DEBTI
Aircraft C17/H-SDE2E3FGHIRWXY/LB1

Departure

Time 2026-05-04 17:22
Airport Bahrain International Airport (OBBI)

Arrival

Time 2026-05-04 18:12
Airport Ali Al Salem Air Base (OKAS)
Time Latitude Longitude Altitude Speed Heading
2026-05-04 17:04 26.27731 50.61481 12 ft 0 kts 316°
2026-05-04 17:10 26.27724 50.61489 12 ft 2 kts 316°
2026-05-04 17:10 26.27691 50.61524 12 ft 2 kts 316°
2026-05-04 17:11 26.27681 50.61536 12 ft 1 kts 334°
2026-05-04 17:11 26.27666 50.61537 12 ft 2 kts 21°
2026-05-04 17:11 26.27654 50.61527 12 ft 0 kts 47°
2026-05-04 17:14 26.27655 50.61528 12 ft 1 kts 46°
2026-05-04 17:14 26.27695 50.61574 12 ft 7 kts 45°
2026-05-04 17:15 26.27743 50.61628 12 ft 12 kts 45°
2026-05-04 17:15 26.27782 50.61820 12 ft 14 kts 120°
2026-05-04 17:16 26.27665 50.62018 12 ft 15 kts 122°
2026-05-04 17:16 26.27471 50.62355 12 ft 19 kts 123°
2026-05-04 17:17 26.27396 50.62485 12 ft 19 kts 123°
2026-05-04 17:17 26.27180 50.62858 12 ft 19 kts 123°
2026-05-04 17:18 26.27102 50.62976 12 ft 18 kts 126°
2026-05-04 17:18 26.26950 50.63235 12 ft 22 kts 123°
2026-05-04 17:19 26.26748 50.63586 12 ft 30 kts 123°
2026-05-04 17:19 26.26491 50.64029 12 ft 37 kts 122°
2026-05-04 17:20 26.26223 50.64491 12 ft 33 kts 123°
2026-05-04 17:20 26.26000 50.64894 12 ft 24 kts 96°
2026-05-04 17:20 26.26085 50.64996 12 ft 16 kts 28°
2026-05-04 17:21 26.26201 50.64903 12 ft 11 kts 303°
2026-05-04 17:21 26.26782 50.63882 12 ft 143 kts 303°
2026-05-04 17:22 26.27407 50.62817 242 ft 172 kts 303°
2026-05-04 17:22 26.28041 50.61744 933 ft 167 kts 305°
2026-05-04 17:23 26.31280 50.60295 2326 ft 189 kts 347°
2026-05-04 17:23 26.32618 50.60004 2612 ft 204 kts 344°
2026-05-04 17:23 26.35613 50.59084 3134 ft 241 kts 342°
2026-05-04 17:24 26.37299 50.58554 3456 ft 257 kts 343°
2026-05-04 17:24 26.42859 50.56851 4535 ft 293 kts 344°
2026-05-04 17:25 26.44853 50.56245 5121 ft 295 kts 344°
2026-05-04 17:25 26.48832 50.55037 6254 ft 300 kts 344°
2026-05-04 17:26 26.52913 50.53805 7324 ft 306 kts 344°
2026-05-04 17:26 26.59133 50.51916 8875 ft 314 kts 344°
2026-05-04 17:27 26.63408 50.50617 9841 ft 319 kts 344°
2026-05-04 17:27 26.67710 50.49302 10770 ft 325 kts 343°
2026-05-04 17:28 26.71792 50.46928 11391 ft 343 kts 320°
2026-05-04 17:29 26.77175 50.41282 12716 ft 359 kts 316°
2026-05-04 17:29 26.82675 50.35445 14258 ft 368 kts 316°
2026-05-04 17:30 26.88322 50.29458 15819 ft 377 kts 315°
2026-05-04 17:31 26.92151 50.25395 16840 ft 384 kts 315°
2026-05-04 17:31 26.98027 50.19152 18318 ft 394 kts 314°
2026-05-04 17:32 27.02103 50.14812 18901 ft 412 kts 314°
2026-05-04 17:33 27.08134 50.07566 19665 ft 435 kts 308°
2026-05-04 17:33 27.10111 50.04966 19908 ft 442 kts 308°
2026-05-04 17:34 27.16180 49.96968 20749 ft 454 kts 308°
2026-05-04 17:34 27.18226 49.94274 21134 ft 456 kts 308°
2026-05-04 17:35 27.24425 49.86100 22144 ft 463 kts 308°
2026-05-04 17:35 27.28622 49.80560 22774 ft 466 kts 307°
2026-05-04 17:35 27.30717 49.77791 23068 ft 468 kts 307°
2026-05-04 17:36 27.32825 49.75003 23349 ft 470 kts 307°
2026-05-04 17:36 27.34937 49.72208 23621 ft 472 kts 307°
2026-05-04 17:36 27.37077 49.69374 23888 ft 474 kts 307°
2026-05-04 17:36 27.39207 49.66550 24143 ft 475 kts 307°
2026-05-04 17:37 27.41336 49.63730 24400 ft 476 kts 307°
2026-05-04 17:37 27.43476 49.60893 24658 ft 477 kts 307°
2026-05-04 17:37 27.45673 49.58044 24914 ft 479 kts 309°
2026-05-04 17:37 27.47969 49.55352 25149 ft 481 kts 311°
2026-05-04 17:38 27.50420 49.52774 25372 ft 484 kts 315°
2026-05-04 17:38 27.53025 49.50314 25584 ft 486 kts 317°
2026-05-04 17:38 27.55657 49.47939 25775 ft 487 kts 317°
2026-05-04 17:38 27.58299 49.45576 25830 ft 487 kts 317°
2026-05-04 17:39 27.63608 49.40831 25866 ft 484 kts 317°
2026-05-04 17:39 27.66229 49.38482 25873 ft 483 kts 317°
2026-05-04 17:39 27.68836 49.36143 25838 ft 478 kts 317°
2026-05-04 17:40 27.71449 49.33795 25821 ft 476 kts 316°
2026-05-04 17:40 27.74029 49.31470 25810 ft 476 kts 316°
2026-05-04 17:40 27.76608 49.29144 25805 ft 476 kts 316°
2026-05-04 17:40 27.79190 49.26816 25803 ft 476 kts 316°
2026-05-04 17:41 27.81769 49.24492 25803 ft 476 kts 316°
2026-05-04 17:41 27.84386 49.22149 25803 ft 476 kts 317°
2026-05-04 17:41 27.87055 49.19938 25804 ft 478 kts 320°
2026-05-04 17:41 27.89821 49.17868 25808 ft 480 kts 323°
2026-05-04 17:42 27.92682 49.15924 25808 ft 482 kts 324°
2026-05-04 17:42 27.95594 49.14008 25804 ft 475 kts 325°
2026-05-04 17:42 27.98457 49.12136 25743 ft 478 kts 325°
2026-05-04 17:42 28.01329 49.10256 25541 ft 479 kts 325°
2026-05-04 17:43 28.04210 49.08368 25341 ft 479 kts 325°
2026-05-04 17:43 28.07083 49.06483 25140 ft 479 kts 325°
2026-05-04 17:43 28.09994 49.04570 24935 ft 479 kts 325°
2026-05-04 17:43 28.12868 49.02679 24679 ft 479 kts 325°
2026-05-04 17:44 28.15736 49.00790 24329 ft 480 kts 325°
2026-05-04 17:44 28.18646 48.98871 23852 ft 480 kts 325°
2026-05-04 17:44 28.21526 48.96972 23291 ft 481 kts 325°
2026-05-04 17:44 28.24395 48.95079 22664 ft 476 kts 325°
2026-05-04 17:45 28.27210 48.93222 21992 ft 466 kts 325°
2026-05-04 17:45 28.29959 48.91411 21549 ft 451 kts 325°
2026-05-04 17:45 28.32652 48.89636 21250 ft 434 kts 325°
2026-05-04 17:45 28.35204 48.87951 20946 ft 418 kts 325°
2026-05-04 17:46 28.37673 48.86317 20617 ft 405 kts 325°
2026-05-04 17:46 28.40075 48.84725 20103 ft 398 kts 326°
2026-05-04 17:46 28.42438 48.83156 19493 ft 394 kts 326°
2026-05-04 17:46 28.44809 48.81581 18920 ft 390 kts 326°
2026-05-04 17:47 28.47128 48.80040 18365 ft 386 kts 326°
2026-05-04 17:47 28.49452 48.78496 17803 ft 382 kts 326°
2026-05-04 17:47 28.51728 48.76984 17249 ft 378 kts 326°
2026-05-04 17:47 28.53977 48.75485 16686 ft 374 kts 325°
2026-05-04 17:48 28.56102 48.73841 16122 ft 368 kts 319°
2026-05-04 17:48 28.58028 48.71932 15564 ft 362 kts 313°
2026-05-04 17:48 28.59695 48.69839 15007 ft 356 kts 307°
2026-05-04 17:48 28.61198 48.67632 14445 ft 353 kts 305°
2026-05-04 17:49 28.62660 48.65429 13879 ft 349 kts 305°
2026-05-04 17:49 28.64108 48.63233 13304 ft 347 kts 305°
2026-05-04 17:49 28.65561 48.61040 12721 ft 344 kts 305°
2026-05-04 17:49 28.66986 48.58894 12152 ft 341 kts 305°
2026-05-04 17:50 28.68400 48.56762 11591 ft 337 kts 306°
2026-05-04 17:50 28.69798 48.54653 11016 ft 334 kts 306°
2026-05-04 17:50 28.71200 48.52537 10462 ft 331 kts 305°
2026-05-04 17:50 28.72486 48.50434 10190 ft 318 kts 302°
2026-05-04 17:51 28.73632 48.48320 9962 ft 305 kts 299°
2026-05-04 17:51 28.74625 48.46247 9750 ft 293 kts 296°
2026-05-04 17:51 28.75489 48.44204 9535 ft 283 kts 295°
2026-05-04 17:51 28.76314 48.42179 8975 ft 288 kts 295°
2026-05-04 17:52 28.77163 48.40090 8185 ft 299 kts 295°
2026-05-04 17:52 28.78054 48.37898 7431 ft 307 kts 295°
2026-05-04 17:52 28.78962 48.35662 7229 ft 319 kts 295°
2026-05-04 17:52 28.79895 48.33353 7106 ft 324 kts 295°
2026-05-04 17:53 28.80837 48.31022 7012 ft 326 kts 295°
2026-05-04 17:53 28.81801 48.28646 6935 ft 329 kts 295°
2026-05-04 17:53 28.82765 48.26269 6859 ft 332 kts 295°
2026-05-04 17:53 28.83727 48.23889 6790 ft 333 kts 295°
2026-05-04 17:54 28.84706 48.21474 6720 ft 333 kts 295°
2026-05-04 17:54 28.85673 48.19087 6650 ft 333 kts 295°
2026-05-04 17:54 28.86638 48.16705 6582 ft 332 kts 295°
2026-05-04 17:54 28.87599 48.14323 6513 ft 332 kts 295°
2026-05-04 17:55 28.88567 48.11918 6443 ft 332 kts 295°
2026-05-04 17:55 28.89521 48.09549 6374 ft 331 kts 295°
2026-05-04 17:55 28.90493 48.07135 6304 ft 331 kts 295°
2026-05-04 17:55 28.91452 48.04761 6235 ft 330 kts 295°
2026-05-04 17:56 28.92408 48.02391 6166 ft 330 kts 295°
2026-05-04 17:56 28.93370 47.99993 6096 ft 330 kts 295°
2026-05-04 17:56 28.94320 47.97623 6027 ft 330 kts 295°
2026-05-04 17:56 28.95272 47.95252 5957 ft 330 kts 295°
2026-05-04 17:57 28.96241 47.92851 5887 ft 330 kts 295°
2026-05-04 17:57 28.97197 47.90475 5817 ft 331 kts 295°
2026-05-04 17:57 28.98152 47.88092 5748 ft 332 kts 295°
2026-05-04 17:57 28.99120 47.85679 5689 ft 332 kts 295°
2026-05-04 17:58 29.00079 47.83287 5626 ft 332 kts 295°
2026-05-04 17:58 29.01035 47.80897 5557 ft 332 kts 295°
2026-05-04 17:58 29.01997 47.78490 5486 ft 331 kts 295°
2026-05-04 17:58 29.02944 47.76108 5425 ft 331 kts 295°
2026-05-04 17:59 29.03890 47.73727 5379 ft 331 kts 295°
2026-05-04 17:59 29.04844 47.71341 5325 ft 331 kts 295°
2026-05-04 17:59 29.06756 47.66563 5232 ft 330 kts 295°
2026-05-04 18:00 29.07719 47.64148 5185 ft 330 kts 295°
2026-05-04 18:00 29.08666 47.61766 5138 ft 329 kts 295°
2026-05-04 18:00 29.09584 47.59458 5085 ft 311 kts 295°
2026-05-04 18:00 29.10455 47.57265 5033 ft 294 kts 295°
2026-05-04 18:01 29.11281 47.55186 5015 ft 277 kts 295°
2026-05-04 18:01 29.12071 47.53194 5016 ft 275 kts 295°
2026-05-04 18:01 29.12859 47.51208 5016 ft 275 kts 295°
2026-05-04 18:02 29.14444 47.47214 5017 ft 275 kts 295°
2026-05-04 18:02 29.15215 47.45220 5017 ft 275 kts 292°
2026-05-04 18:02 29.15884 47.43182 5018 ft 276 kts 292°
2026-05-04 18:02 29.16695 47.41174 5019 ft 275 kts 298°
2026-05-04 18:03 29.17660 47.39301 5020 ft 275 kts 304°
2026-05-04 18:03 29.18776 47.37546 5016 ft 268 kts 309°
2026-05-04 18:03 29.19984 47.35976 5012 ft 251 kts 314°
2026-05-04 18:03 29.21205 47.34643 5010 ft 236 kts 319°
2026-05-04 18:04 29.22447 47.33491 5014 ft 228 kts 323°
2026-05-04 18:04 29.23752 47.32465 5018 ft 228 kts 327°
2026-05-04 18:04 29.26539 47.30787 5007 ft 215 kts 336°
2026-05-04 18:05 29.27904 47.30183 5011 ft 209 kts 340°
2026-05-04 18:05 29.29312 47.29692 5017 ft 209 kts 345°
2026-05-04 18:05 29.30728 47.29324 5020 ft 209 kts 349°
2026-05-04 18:05 29.32160 47.29076 5017 ft 209 kts 353°
2026-05-04 18:06 29.35082 47.28938 4845 ft 210 kts
2026-05-04 18:06 29.36541 47.29053 4594 ft 208 kts
2026-05-04 18:06 29.37969 47.29288 4333 ft 207 kts
2026-05-04 18:07 29.39373 47.29638 4073 ft 207 kts 14°
2026-05-04 18:07 29.40763 47.30107 3813 ft 206 kts 18°
2026-05-04 18:07 29.42026 47.30839 3523 ft 208 kts 46°
2026-05-04 18:07 29.42631 47.32303 3231 ft 209 kts 86°
2026-05-04 18:08 29.42589 47.33973 2986 ft 207 kts 91°
2026-05-04 18:08 29.42510 47.35609 2726 ft 207 kts 101°
2026-05-04 18:08 29.42074 47.37167 2472 ft 207 kts 114°
2026-05-04 18:08 29.41417 47.38634 2325 ft 205 kts 119°
2026-05-04 18:09 29.39983 47.41420 2203 ft 194 kts 120°
2026-05-04 18:09 29.38716 47.43893 1715 ft 166 kts 120°
2026-05-04 18:10 29.38158 47.44986 1461 ft 155 kts 120°
2026-05-04 18:10 29.37640 47.46003 1255 ft 143 kts 120°
2026-05-04 18:10 29.37133 47.46990 1113 ft 145 kts 120°
2026-05-04 18:10 29.36613 47.47995 983 ft 145 kts 120°
2026-05-04 18:11 29.36112 47.48988 785 ft 143 kts 118°
2026-05-04 18:11 29.35620 47.49963 601 ft 141 kts 119°
2026-05-04 18:11 29.35124 47.50935 459 ft 136 kts 119°
2026-05-04 18:11 29.34707 47.51756 459 ft 97 kts 120°
2026-05-04 18:12 29.34415 47.52329 473 ft 75 kts 119°
2026-05-04 18:12 29.34172 47.52782 480 ft 51 kts 115°
2026-05-04 18:12 29.34047 47.53029 480 ft 22 kts 140°
2026-05-04 18:12 29.33971 47.53061 480 ft 5 kts 161°
2026-05-04 18:13 29.33926 47.53079 479 ft 8 kts 160°
2026-05-04 18:13 29.33869 47.53102 478 ft 7 kts 160°
2026-05-04 18:13 29.33807 47.53127 478 ft 0 kts 162°